CCD896A ZYCH-ZYCH

Flight info

Callsign CCD896A
Flight time 0h 9m
Altitude 32000
Route CHI
Aircraft B738/M-SDE2E3FGILRWXY/LB2

Departure

Time 2026-04-25 16:44
Airport Changhai Dachangshandao Airport (ZYCH)

Arrival

Time 2026-04-25 16:54
Airport Changhai Dachangshandao Airport (ZYCH)
Time Latitude Longitude Altitude Speed Heading
2026-04-25 16:33 39.26667 122.66533 14 ft 0 kts 340°
2026-04-25 16:38 39.26671 122.66531 14 ft 0 kts 340°
2026-04-25 16:38 39.26673 122.66530 14 ft 0 kts 342°
2026-04-25 16:39 39.26675 122.66530 14 ft 0 kts
2026-04-25 16:39 39.26680 122.66533 14 ft 3 kts 24°
2026-04-25 16:40 39.26698 122.66563 15 ft 5 kts 68°
2026-04-25 16:40 39.26706 122.66593 14 ft 1 kts 72°
2026-04-25 16:40 39.26712 122.66616 14 ft 3 kts 58°
2026-04-25 16:40 39.26740 122.66634 14 ft 5 kts
2026-04-25 16:41 39.26783 122.66619 15 ft 7 kts 342°
2026-04-25 16:41 39.26834 122.66596 14 ft 8 kts 340°
2026-04-25 16:41 39.26943 122.66551 14 ft 6 kts 353°
2026-04-25 16:42 39.26974 122.66545 14 ft 2 kts 345°
2026-04-25 16:42 39.26978 122.66535 14 ft 1 kts 285°
2026-04-25 16:42 39.26979 122.66528 14 ft 0 kts 268°
2026-04-25 16:42 39.26977 122.66526 14 ft 0 kts 226°
2026-04-25 16:43 39.26973 122.66526 15 ft 0 kts 170°
2026-04-25 16:43 39.26969 122.66530 15 ft 0 kts 139°
2026-04-25 16:43 39.26958 122.66537 15 ft 1 kts 160°
2026-04-25 16:43 39.26956 122.66539 14 ft 0 kts 160°
2026-04-25 16:44 39.26852 122.66585 15 ft 64 kts 161°
2026-04-25 16:44 39.26078 122.66954 194 ft 157 kts 161°
2026-04-25 16:44 39.25095 122.67439 921 ft 157 kts 165°
2026-04-25 16:45 39.24062 122.67873 1546 ft 163 kts 168°
2026-04-25 16:45 39.23046 122.68284 2052 ft 154 kts 167°
2026-04-25 16:45 39.22008 122.68800 2043 ft 169 kts 148°
2026-04-25 16:45 39.21388 122.70113 2061 ft 184 kts 98°
2026-04-25 16:46 39.21639 122.71776 2089 ft 194 kts 72°
2026-04-25 16:46 39.22082 122.73477 2073 ft 204 kts 72°
2026-04-25 16:46 39.22552 122.75205 2184 ft 199 kts 71°
2026-04-25 16:46 39.22709 122.75758 2213 ft 197 kts 70°
2026-04-25 16:47 39.24065 122.77988 2163 ft 191 kts 17°
2026-04-25 16:47 39.25350 122.77969 1983 ft 194 kts 341°
2026-04-25 16:47 39.26646 122.77465 1846 ft 197 kts 340°
2026-04-25 16:47 39.27956 122.76917 1804 ft 193 kts 339°
2026-04-25 16:48 39.29178 122.76385 1834 ft 180 kts 338°
2026-04-25 16:48 39.30275 122.75893 1981 ft 158 kts 337°
2026-04-25 16:48 39.31302 122.75437 1930 ft 149 kts 338°
2026-04-25 16:48 39.32217 122.75033 1943 ft 128 kts 338°
2026-04-25 16:49 39.33071 122.74667 1703 ft 133 kts 338°
2026-04-25 16:49 39.33939 122.74285 1621 ft 128 kts 337°
2026-04-25 16:49 39.34783 122.73923 1387 ft 129 kts 336°
2026-04-25 16:49 39.35452 122.73216 1365 ft 125 kts 292°
2026-04-25 16:50 39.35471 122.72137 1398 ft 124 kts 249°
2026-04-25 16:50 39.35216 122.71064 1388 ft 124 kts 251°
2026-04-25 16:50 39.34967 122.70013 1429 ft 120 kts 251°
2026-04-25 16:50 39.34705 122.68958 1396 ft 123 kts 250°
2026-04-25 16:51 39.34429 122.67950 1285 ft 120 kts 249°
2026-04-25 16:51 39.34136 122.66946 1298 ft 118 kts 247°
2026-04-25 16:51 39.33830 122.65937 1254 ft 121 kts 246°
2026-04-25 16:51 39.33619 122.65284 1210 ft 115 kts 245°
2026-04-25 16:52 39.33024 122.64222 914 ft 114 kts 201°
2026-04-25 16:52 39.32227 122.64166 693 ft 117 kts 176°
2026-04-25 16:52 39.31455 122.64458 505 ft 115 kts 162°
2026-04-25 16:52 39.30695 122.64822 350 ft 117 kts 165°
2026-04-25 16:53 39.29156 122.65533 234 ft 115 kts 165°
2026-04-25 16:53 39.28408 122.65878 170 ft 115 kts 164°
2026-04-25 16:53 39.27661 122.66222 101 ft 113 kts 165°
2026-04-25 16:54 39.26923 122.66556 16 ft 108 kts 164°
2026-04-25 16:54 39.26531 122.66731 14 ft 0 kts 161°
2026-04-25 16:54 39.26522 122.66735 14 ft 13 kts 161°
2026-04-25 16:54 39.26432 122.66773 14 ft 20 kts 163°
2026-04-25 16:55 39.26400 122.66785 14 ft 0 kts 165°
2026-04-25 16:55 39.26385 122.66788 14 ft 10 kts 170°
2026-04-25 16:55 39.26362 122.66808 14 ft 1 kts 51°
2026-04-25 16:55 39.26396 122.66799 14 ft 4 kts 342°
2026-04-25 16:56 39.26426 122.66784 14 ft 7 kts 337°
2026-04-25 16:56 39.26522 122.66737 14 ft 21 kts 341°
2026-04-25 16:56 39.26623 122.66691 14 ft 0 kts 340°
2026-04-25 16:56 39.26689 122.66660 14 ft 15 kts 333°
2026-04-25 16:57 39.26698 122.66581 14 ft 4 kts 224°
2026-04-25 16:57 39.26685 122.66571 14 ft 1 kts 194°
2026-04-25 16:57 39.26660 122.66544 14 ft 4 kts 278°
2026-04-25 16:57 39.26666 122.66535 14 ft 0 kts 323°
2026-04-25 16:58 39.26673 122.66529 14 ft 0 kts 348°